Change the Weather History Date:

Sunday, November 4, 2012

  Actual Average Record
Temperature  
Mean Temperature 53 °F 58 °F  
Max Temperature 63 °F 70 °F 87 °F (1922)
Min Temperature 43 °F 47 °F 23 °F (1966)
Degree Days  
Heating Degree Days 12 8  
Month to date heating degree days 20 30  
Since 1 July heating degree days 159 144  
Cooling Degree Days 0 1  
Month to date cooling degree days 6 4  
Year to date cooling degree days 2444 2178  
Growing Degree Days 4 (Base 50)    
Moisture  
Dew Point 47 °F    
Average Humidity 74    
Maximum Humidity 100    
Minimum Humidity 48    
Precipitation  
Precipitation 0.02 in 0.15 in 2.36 in (1925)
Month to date precipitation 0.02 0.56  
Year to date precipitation 35.25 42.52  
Sea Level Pressure  
Sea Level Pressure 30.15 in    
Wind  
Wind Speed 8 mph (NNE)    
Max Wind Speed 15 mph    
Max Gust Speed 20 mph    
Visibility 10 miles    
Events Rain    
T = Trace of Precipitation, MM = Missing Value Source: NWS Daily Summary

Daily Weather History Graph

Daily Weather History Graph

Search for Another Location

Airport or City:

Trip Planner

Search our weather history database for the weather conditions in past years. The results will help you decide how hot, cold, wet, or windy it might be!

Date:

Astronomy

Nov. 04, 2012 Rise Set
Actual Time 6:25 AM CST 5:08 PM CST
Civil Twilight 5:59 AM CST 5:34 PM CST
Nautical Twilight 5:30 AM CST 6:04 PM CST
Astronomical Twilight 5:01 AM CST 6:33 PM CST
Moon 9:49 PM CST (11/4) 11:06 AM CST (11/4)
Length of Visible Light 11h 34m
Length of Day
10h 43m
Waning Gibbous, 72% of the Moon is Illuminated
Nov 4
Waning Gibbous
Nov 6
Last Quarter
Nov 13
New
Nov 20
First Quarter
Nov 28
Full

Hourly Weather History & Observations

Time (CST) Temp. Windchill Dew Point Humidity Pressure Visibility Wind Dir Wind Speed Gust Speed Precip Events Conditions
12:53 AM 61.0 °F - 57.0 °F 87% 30.09 in 10.0 mi North 10.4 mph - N/A   Scattered Clouds
1:53 AM 61.0 °F - 55.9 °F 83% 30.10 in 10.0 mi North 4.6 mph - N/A   Scattered Clouds
1:53 AM 59.0 °F - 55.0 °F 87% 30.09 in 10.0 mi East 6.9 mph - 0.00 in   Clear
2:24 AM 59.0 °F - 55.4 °F 88% 30.12 in 10.0 mi NNE 8.1 mph - N/A   Mostly Cloudy
2:53 AM 57.0 °F - 51.1 °F 81% 30.12 in 10.0 mi ENE 6.9 mph - N/A   Overcast
3:15 AM 55.4 °F - 50.0 °F 82% 30.08 in 10.0 mi NE 6.9 mph - N/A   Mostly Cloudy
3:53 AM 55.0 °F - 50.0 °F 83% 30.11 in 10.0 mi North 11.5 mph - N/A   Clear
4:53 AM 54.0 °F - 48.0 °F 80% 30.13 in 10.0 mi NNE 6.9 mph - 0.00 in Rain Light Rain
5:53 AM 53.1 °F - 46.9 °F 80% 30.14 in 10.0 mi NNE 12.7 mph - 0.00 in   Overcast
6:53 AM 51.1 °F - 46.9 °F 86% 30.20 in 7.0 mi North 4.6 mph - 0.01 in Rain Light Rain
7:53 AM 51.1 °F - 46.9 °F 86% 30.20 in 8.0 mi North 9.2 mph - 0.01 in   Partly Cloudy
8:53 AM 51.1 °F - 45.0 °F 80% 30.20 in 10.0 mi North 10.4 mph - N/A   Clear
9:53 AM 55.0 °F - 45.0 °F 69% 30.20 in 10.0 mi NNE 11.5 mph - N/A   Clear
10:53 AM 57.0 °F - 46.9 °F 69% 30.21 in 10.0 mi North 11.5 mph - N/A   Clear
11:53 AM 57.9 °F - 46.0 °F 65% 30.19 in 10.0 mi North 11.5 mph - N/A   Clear
12:53 PM 60.1 °F - 44.1 °F 55% 30.16 in 10.0 mi NNE 11.5 mph - N/A   Clear
1:53 PM 62.1 °F - 44.1 °F 52% 30.15 in 10.0 mi NNE 9.2 mph - N/A   Clear
2:53 PM 63.0 °F - 44.1 °F 50% 30.14 in 10.0 mi NNE 13.8 mph - N/A   Clear
3:53 PM 62.1 °F - 43.0 °F 50% 30.13 in 10.0 mi NE 9.2 mph - N/A   Clear
4:53 PM 57.9 °F - 43.0 °F 58% 30.14 in 10.0 mi NNE 8.1 mph - N/A   Clear
5:53 PM 54.0 °F - 44.1 °F 69% 30.15 in 10.0 mi North 8.1 mph - N/A   Clear
6:53 PM 51.1 °F - 44.1 °F 77% 30.16 in 10.0 mi North 3.5 mph - N/A   Clear
7:53 PM 50.0 °F - 43.0 °F 77% 30.17 in 10.0 mi Calm Calm - N/A   Clear
8:53 PM 46.9 °F - 43.0 °F 86% 30.17 in 10.0 mi Calm Calm - N/A   Clear
9:53 PM 45.0 °F - 44.1 °F 97% 30.16 in 10.0 mi Calm Calm - N/A   Clear
10:53 PM 44.1 °F 41.5 °F 42.1 °F 93% 30.16 in 10.0 mi NNE 4.6 mph - N/A   Partly Cloudy